Location: Unspecified
(52.4292°N, 19.3359°E)
Time: 01:00:14
(UTC+02:00)

Altair - Pass Details

Date: 20 May 2024
Orbit: 1502 x 1682 km, 47.2° (Epoch: 20 June)

Event Time Altitude Azimuth Distance (km) Brightness Sun altitude
Rises 11:01:42 0° 214° (SW) 4,826 10.2 52.6°
Reaches altitude 10° 11:05:04 10° 206° (SSW) 3,865 10.0 52.9°
Maximum altitude 11:13:51 38° 144° (SE) 2,375 10.4 53.7°
Drops below altitude 10° 11:22:48 10° 82° (E) 3,948 10.0 54.5°
Sets 11:26:16 0° 75° (ENE) 4,939 10.3 54.7°
